sat.trackr.live / text

‹ back to catalog

STARLINK-3637

NORAD 51799 · 2022-017AH

PAYLOAD ACTIVE UNKNOWN

§ Identity

Operator
Country
US
Launch date
2022-02-25
Launch site
AFWTR
Launch vehicle
Mass (kg)
RCS (m²)

Purposes: comms

External: N2YO · Heavens-Above · Gunter

§ Orbital elements

Epoch: 2026-09-20T01:42:56.454336Z

Period
93.85 min
Inclination
53.1593°
Eccentricity
0.0001157
Mean motion
15.34390585 rev/d
Perigee alt
461.9 km
Apogee alt
463.5 km
Semi-major
6,840.9 km
B*
1.4684e-5
RAAN
180.0658°
Arg perigee
93.2050°
Mean anomaly
266.9085°
Rev number
25,349

§ Raw data

STARLINK-36371 51799U 22017AH  26263.07148674  .00000120  00000+0  14684-4 0  99982 51799  53.1593 180.0658 0001157  93.2050 266.9085 15.34390585253492

JSON: /api/v1/satellites/51799 · /tle

For live sub-satellite position, see the globe view (requires WebGL).

§ Visibility from observer

Set your observer location to see the next 7 days of passes ≥ 10°. The values pass through the URL so the page stays shareable.

No JS? Fill the form by hand. The geolocation button needs JavaScript.